VIR24Q LFPG-KJFK

Flight info

Callsign VIR24Q
Flight time 7h 43m
Altitude 36000
Route ELCOB UT300 SENLO DCT JSY DCT LIZAD DCT LESLU DCT MALOT/M085F370 DCT 54N020W 54N030W 54N040W 53N050W DCT RIKAL/N0494F380 N572A TOPPS DCT ENE PARCH4
Aircraft A35K/H-SDE2E3GHIJ3J4J5LM1ORWXY/LB1D1

Departure

Time 2026-05-05 00:11
Airport Charles de Gaulle International Airport (LFPG)

Arrival

Time 2026-05-05 07:55
Airport John F. Kennedy International Airport (KJFK)
Time Latitude Longitude Altitude Speed Heading
2026-05-04 23:37 49.01661 2.53911 360 ft 0 kts 193°
2026-05-04 23:40 49.01662 2.53911 388 ft 0 kts 193°
2026-05-04 23:43 49.01661 2.53911 388 ft 0 kts 193°
2026-05-04 23:43 49.01661 2.53910 388 ft 0 kts 193°
2026-05-04 23:45 49.01669 2.53912 360 ft 4 kts 195°
2026-05-04 23:46 49.01688 2.53923 360 ft 4 kts 211°
2026-05-04 23:46 49.01710 2.53946 368 ft 4 kts 212°
2026-05-04 23:46 49.01733 2.53968 364 ft 4 kts 214°
2026-05-04 23:46 49.01754 2.53992 368 ft 4 kts 222°
2026-05-04 23:47 49.01773 2.54022 363 ft 4 kts 229°
2026-05-04 23:47 49.01781 2.54037 365 ft 0 kts 229°
2026-05-04 23:50 49.01781 2.54036 364 ft 0 kts 229°
2026-05-04 23:51 49.01782 2.54036 364 ft 0 kts 229°
2026-05-04 23:53 49.01777 2.54028 366 ft 2 kts 228°
2026-05-04 23:53 49.01761 2.54005 360 ft 4 kts 225°
2026-05-04 23:53 49.01752 2.53964 367 ft 5 kts 264°
2026-05-04 23:54 49.01758 2.53917 365 ft 2 kts 306°
2026-05-04 23:54 49.01777 2.53896 367 ft 6 kts 316°
2026-05-04 23:54 49.01792 2.53809 365 ft 9 kts 268°
2026-05-04 23:54 49.01786 2.53681 368 ft 15 kts 266°
2026-05-04 23:55 49.01777 2.53520 366 ft 16 kts 264°
2026-05-04 23:55 49.01766 2.53347 362 ft 17 kts 265°
2026-05-04 23:55 49.01744 2.52963 366 ft 19 kts 266°
2026-05-04 23:56 49.01735 2.52757 362 ft 20 kts 266°
2026-05-04 23:56 49.01725 2.52541 361 ft 20 kts 267°
2026-05-04 23:56 49.01712 2.52334 367 ft 21 kts 264°
2026-05-04 23:56 49.01699 2.52095 360 ft 22 kts 266°
2026-05-04 23:57 49.01689 2.51862 366 ft 23 kts 265°
2026-05-04 23:57 49.01675 2.51620 366 ft 21 kts 265°
2026-05-04 23:57 49.01662 2.51407 367 ft 20 kts 263°
2026-05-04 23:57 49.01724 2.51276 366 ft 17 kts 356°
2026-05-04 23:58 49.01840 2.51257 367 ft 17 kts 353°
2026-05-04 23:58 49.01958 2.51254 365 ft 17 kts 14°
2026-05-04 23:58 49.02048 2.51365 367 ft 15 kts 50°
2026-05-04 23:58 49.02073 2.51477 366 ft 0 kts 89°
2026-05-05 00:01 49.02073 2.51478 360 ft 0 kts 89°
2026-05-05 00:01 49.02076 2.51576 366 ft 34 kts 86°
2026-05-05 00:01 49.02114 2.52249 361 ft 75 kts 85°
2026-05-05 00:01 49.02147 2.52913 366 ft 61 kts 85°
2026-05-05 00:02 49.02195 2.53742 359 ft 100 kts 85°
2026-05-05 00:02 49.02256 2.54864 365 ft 99 kts 85°
2026-05-05 00:02 49.02294 2.55598 368 ft 45 kts 85°
2026-05-05 00:02 49.02295 2.55920 366 ft 22 kts 117°
2026-05-05 00:03 49.02233 2.55980 368 ft 9 kts 160°
2026-05-05 00:03 49.02178 2.55982 363 ft 9 kts 179°
2026-05-05 00:03 49.02166 2.55982 360 ft 0 kts 178°
2026-05-05 00:04 49.02162 2.55982 362 ft 1 kts 178°
2026-05-05 00:05 49.02140 2.55979 360 ft 8 kts 193°
2026-05-05 00:05 49.02093 2.55900 367 ft 12 kts 246°
2026-05-05 00:05 49.02076 2.55767 369 ft 14 kts 262°
2026-05-05 00:05 49.02067 2.55613 365 ft 15 kts 268°
2026-05-05 00:06 49.02060 2.55444 363 ft 17 kts 265°
2026-05-05 00:06 49.02050 2.55258 360 ft 18 kts 265°
2026-05-05 00:06 49.02039 2.55059 363 ft 20 kts 265°
2026-05-05 00:06 49.02028 2.54845 368 ft 21 kts 265°
2026-05-05 00:07 49.02015 2.54620 367 ft 22 kts 265°
2026-05-05 00:07 49.02002 2.54383 367 ft 23 kts 265°
2026-05-05 00:07 49.01954 2.54157 369 ft 23 kts 221°
2026-05-05 00:07 49.01889 2.53943 367 ft 23 kts 264°
2026-05-05 00:08 49.01874 2.53690 366 ft 24 kts 265°
2026-05-05 00:08 49.01861 2.53427 366 ft 25 kts 266°
2026-05-05 00:08 49.01848 2.53156 360 ft 26 kts 264°
2026-05-05 00:08 49.01831 2.52878 368 ft 27 kts 264°
2026-05-05 00:09 49.01815 2.52589 367 ft 28 kts 265°
2026-05-05 00:09 49.01800 2.52310 362 ft 22 kts 265°
2026-05-05 00:09 49.01832 2.52138 368 ft 18 kts 327°
2026-05-05 00:09 49.01946 2.52111 365 ft 16 kts 354°
2026-05-05 00:10 49.02061 2.52103 366 ft 14 kts
2026-05-05 00:10 49.02104 2.52151 365 ft 8 kts 68°
2026-05-05 00:10 49.02107 2.52181 367 ft 2 kts 83°
2026-05-05 00:10 49.02126 2.52448 366 ft 57 kts 84°
2026-05-05 00:11 49.02175 2.53386 366 ft 119 kts 85°
2026-05-05 00:11 49.02254 2.54918 372 ft 170 kts 85°
2026-05-05 00:11 49.02329 2.56711 937 ft 171 kts 84°
2026-05-05 00:11 49.02109 2.58336 1879 ft 151 kts 126°
2026-05-05 00:12 49.01156 2.59032 2257 ft 161 kts 176°
2026-05-05 00:12 49.00046 2.59074 2559 ft 157 kts 178°
2026-05-05 00:12 48.98928 2.59045 2920 ft 164 kts 179°
2026-05-05 00:12 48.97768 2.58986 3298 ft 170 kts 180°
2026-05-05 00:13 48.96542 2.59021 3592 ft 183 kts 171°
2026-05-05 00:13 48.95227 2.59320 3848 ft 200 kts 168°
2026-05-05 00:13 48.93808 2.59700 4080 ft 219 kts 168°
2026-05-05 00:13 48.92241 2.60123 4369 ft 236 kts 168°
2026-05-05 00:14 48.90580 2.60565 4776 ft 249 kts 168°
2026-05-05 00:14 48.88818 2.61030 5172 ft 263 kts 169°
2026-05-05 00:14 48.86991 2.61495 5789 ft 268 kts 171°
2026-05-05 00:14 48.85395 2.61582 6351 ft 271 kts 185°
2026-05-05 00:15 48.83591 2.60710 6996 ft 275 kts 210°
2026-05-05 00:15 48.81999 2.59136 7631 ft 278 kts 215°
2026-05-05 00:15 48.80427 2.57359 8304 ft 280 kts 217°
2026-05-05 00:15 48.78891 2.55521 9007 ft 282 kts 218°
2026-05-05 00:16 48.77372 2.53625 9709 ft 284 kts 219°
2026-05-05 00:16 48.75867 2.51699 10243 ft 291 kts 220°
2026-05-05 00:16 48.74282 2.49646 10548 ft 307 kts 220°
2026-05-05 00:16 48.72622 2.47478 10901 ft 319 kts 220°
2026-05-05 00:17 48.70921 2.45249 11425 ft 325 kts 220°
2026-05-05 00:17 48.69203 2.42996 12023 ft 329 kts 220°
2026-05-05 00:17 48.67466 2.40718 12639 ft 332 kts 220°
2026-05-05 00:17 48.65730 2.38442 13209 ft 335 kts 220°
2026-05-05 00:18 48.63958 2.36121 13781 ft 339 kts 220°
2026-05-05 00:18 48.62164 2.33773 14325 ft 341 kts 220°
2026-05-05 00:18 48.60367 2.31423 14925 ft 342 kts 220°
2026-05-05 00:18 48.58556 2.29057 15475 ft 344 kts 220°
2026-05-05 00:19 48.56735 2.26681 15999 ft 347 kts 220°
2026-05-05 00:19 48.54898 2.24285 16554 ft 350 kts 220°
2026-05-05 00:19 48.53024 2.21926 17080 ft 352 kts 216°
2026-05-05 00:19 48.50886 2.20127 17607 ft 353 kts 199°
2026-05-05 00:20 48.48511 2.19435 18120 ft 353 kts 180°
2026-05-05 00:20 48.46041 2.19526 18581 ft 356 kts 176°
2026-05-05 00:20 48.43556 2.19736 19031 ft 358 kts 176°
2026-05-05 00:20 48.41052 2.19951 19498 ft 360 kts 176°
2026-05-05 00:21 48.38542 2.20163 19963 ft 362 kts 177°
2026-05-05 00:21 48.36045 2.20371 20442 ft 364 kts 177°
2026-05-05 00:21 48.33507 2.20580 20906 ft 366 kts 177°
2026-05-05 00:21 48.30957 2.20790 21379 ft 368 kts 177°
2026-05-05 00:22 48.28427 2.21119 21827 ft 370 kts 173°
2026-05-05 00:22 48.25835 2.21709 22295 ft 372 kts 171°
2026-05-05 00:22 48.23265 2.22340 22756 ft 374 kts 171°
2026-05-05 00:22 48.20719 2.22965 23212 ft 377 kts 171°
2026-05-05 00:23 48.18113 2.23576 23686 ft 377 kts 173°
2026-05-05 00:23 48.15500 2.23786 24109 ft 376 kts 183°
2026-05-05 00:23 48.12907 2.23266 24509 ft 377 kts 193°
2026-05-05 00:23 48.10410 2.21996 24764 ft 383 kts 204°
2026-05-05 00:24 48.08081 2.19958 24936 ft 392 kts 215°
2026-05-05 00:24 48.06032 2.17201 25097 ft 402 kts 226°
2026-05-05 00:24 48.04361 2.13789 25261 ft 412 kts 238°
2026-05-05 00:24 48.03176 2.09831 25425 ft 424 kts 249°
2026-05-05 00:25 48.02576 2.05475 25645 ft 434 kts 262°
2026-05-05 00:25 48.02633 2.00922 25943 ft 443 kts 274°
2026-05-05 00:25 48.03383 1.96416 26255 ft 452 kts 287°
2026-05-05 00:25 48.04815 1.92241 26581 ft 461 kts 301°
2026-05-05 00:26 48.06920 1.88569 26891 ft 470 kts 315°
2026-05-05 00:26 48.09599 1.85699 27206 ft 478 kts 330°
2026-05-05 00:26 48.12704 1.83860 27515 ft 484 kts 345°
2026-05-05 00:26 48.16047 1.83036 27837 ft 488 kts 353°
2026-05-05 00:27 48.19400 1.82517 28147 ft 491 kts 352°
2026-05-05 00:27 48.22743 1.81539 28490 ft 492 kts 342°
2026-05-05 00:27 48.25954 1.79725 28857 ft 491 kts 333°
2026-05-05 00:27 48.28995 1.77327 29167 ft 492 kts 325°
2026-05-05 00:28 48.31744 1.74292 29479 ft 490 kts 315°
2026-05-05 00:28 48.34047 1.70565 29837 ft 487 kts 302°
2026-05-05 00:28 48.35825 1.66250 30154 ft 482 kts 293°
2026-05-05 00:28 48.37279 1.61699 30442 ft 482 kts 289°
2026-05-05 00:29 48.38570 1.57039 30725 ft 483 kts 287°
2026-05-05 00:29 48.39772 1.52392 31013 ft 484 kts 286°
2026-05-05 00:29 48.40983 1.47636 31303 ft 486 kts 286°
2026-05-05 00:29 48.42209 1.42857 31588 ft 488 kts 286°
2026-05-05 00:30 48.43448 1.38100 31873 ft 489 kts 287°
2026-05-05 00:30 48.44706 1.33334 32214 ft 489 kts 287°
2026-05-05 00:30 48.45959 1.28628 32628 ft 488 kts 286°
2026-05-05 00:30 48.47236 1.23841 32865 ft 491 kts 286°
2026-05-05 00:31 48.48512 1.19058 33178 ft 491 kts 286°
2026-05-05 00:31 48.49783 1.14287 33567 ft 489 kts 286°
2026-05-05 00:31 48.51049 1.09523 33948 ft 488 kts 286°
2026-05-05 00:31 48.52294 1.04827 34238 ft 487 kts 286°
2026-05-05 00:32 48.53549 1.00079 34509 ft 487 kts 286°
2026-05-05 00:32 48.54803 0.95318 34758 ft 487 kts 286°
2026-05-05 00:32 48.56057 0.90549 35009 ft 487 kts 287°
2026-05-05 00:32 48.57308 0.85780 35269 ft 487 kts 287°
2026-05-05 00:33 48.58545 0.81052 35411 ft 490 kts 287°
2026-05-05 00:33 48.59802 0.76239 35617 ft 490 kts 287°
2026-05-05 00:33 48.61052 0.71445 35854 ft 490 kts 287°
2026-05-05 00:34 48.63502 0.62010 35928 ft 498 kts 287°
2026-05-05 00:34 48.66032 0.52240 35930 ft 497 kts 287°
2026-05-05 00:35 48.68545 0.42495 35952 ft 496 kts 287°
2026-05-05 00:35 48.71036 0.32790 35933 ft 498 kts 287°
2026-05-05 00:36 48.73538 0.22999 35932 ft 498 kts 287°
2026-05-05 00:36 48.76036 0.13183 35940 ft 498 kts 287°
2026-05-05 00:37 48.78522 0.03375 35941 ft 498 kts 287°
2026-05-05 00:37 48.80572 -0.04753 35946 ft 498 kts 287°
2026-05-05 00:38 48.83451 -0.16212 35944 ft 499 kts 287°
2026-05-05 00:38 48.85920 -0.26082 35946 ft 499 kts 287°
2026-05-05 00:39 48.87985 -0.34373 35948 ft 499 kts 287°
2026-05-05 00:39 48.90422 -0.44194 35956 ft 499 kts 287°
2026-05-05 00:40 48.92867 -0.54096 35960 ft 499 kts 287°
2026-05-05 00:40 48.95301 -0.63997 35960 ft 499 kts 287°
2026-05-05 00:41 48.97716 -0.73865 35959 ft 499 kts 287°
2026-05-05 00:41 49.00133 -0.83784 35957 ft 499 kts 287°
2026-05-05 00:42 49.02544 -0.93728 35959 ft 500 kts 287°
2026-05-05 00:42 49.04932 -1.03616 35957 ft 500 kts 287°
2026-05-05 00:43 49.07328 -1.13582 35964 ft 500 kts 287°
2026-05-05 00:43 49.09295 -1.23726 35965 ft 496 kts 281°
2026-05-05 00:44 49.10974 -1.33905 35975 ft 496 kts 281°
2026-05-05 00:44 49.12612 -1.44147 35971 ft 497 kts 281°
2026-05-05 00:45 49.13704 -1.54491 35977 ft 489 kts 263°
2026-05-05 00:45 49.12314 -1.64544 35976 ft 483 kts 251°
2026-05-05 00:46 49.10481 -1.74378 35977 ft 485 kts 254°
2026-05-05 00:46 49.09390 -1.84584 35979 ft 489 kts 260°
2026-05-05 00:47 49.08557 -1.94843 35987 ft 490 kts 261°
2026-05-05 00:47 49.07725 -2.05159 35994 ft 490 kts 260°
2026-05-05 00:48 49.06887 -2.15493 35996 ft 490 kts 260°
2026-05-05 00:48 49.06033 -2.25809 35991 ft 490 kts 260°
2026-05-05 00:49 49.05140 -2.36079 35990 ft 492 kts 260°
2026-05-05 00:49 49.04236 -2.46442 35990 ft 492 kts 260°
2026-05-05 00:50 49.03328 -2.56791 35988 ft 492 kts 260°
2026-05-05 00:50 49.02410 -2.67123 35996 ft 492 kts 260°
2026-05-05 00:51 49.01457 -2.77430 35989 ft 493 kts 260°
2026-05-05 00:51 49.00489 -2.87802 35995 ft 494 kts 260°
2026-05-05 00:52 48.99518 -2.98158 35999 ft 494 kts 260°
2026-05-05 00:52 48.98548 -3.08469 36004 ft 494 kts 261°
2026-05-05 00:53 48.97538 -3.18789 35998 ft 495 kts 260°
2026-05-05 00:53 48.96501 -3.29199 35999 ft 496 kts 260°
2026-05-05 00:54 48.95463 -3.39582 36001 ft 496 kts 260°
2026-05-05 00:54 48.94420 -3.49965 35997 ft 496 kts 260°
2026-05-05 00:55 48.93356 -3.60308 36003 ft 497 kts 260°
2026-05-05 00:55 48.92265 -3.70717 36002 ft 497 kts 260°
2026-05-05 00:56 48.91177 -3.81046 36001 ft 495 kts 260°
2026-05-05 00:56 48.90638 -3.86162 36002 ft 483 kts 260°
2026-05-05 00:56 48.90114 -3.91138 36001 ft 477 kts 260°
2026-05-05 00:57 48.89054 -4.01073 36003 ft 475 kts 260°
2026-05-05 00:57 48.87975 -4.10974 36007 ft 476 kts 260°
2026-05-05 00:58 48.86888 -4.20905 36009 ft 477 kts 260°
2026-05-05 00:58 48.85796 -4.30846 36006 ft 477 kts 259°
2026-05-05 00:59 48.84700 -4.40781 36014 ft 477 kts 259°
2026-05-05 00:59 48.83581 -4.50682 35997 ft 478 kts 259°
2026-05-05 01:00 48.82449 -4.60651 36016 ft 479 kts 259°
2026-05-05 01:00 48.81320 -4.70568 36014 ft 479 kts 259°
2026-05-05 01:01 48.80184 -4.80524 36011 ft 479 kts 259°
2026-05-05 01:01 48.79046 -4.90439 36006 ft 478 kts 259°
2026-05-05 01:02 48.77903 -5.00350 36021 ft 478 kts 259°
2026-05-05 01:02 48.76758 -5.10246 36021 ft 478 kts 259°
2026-05-05 01:03 48.75604 -5.20193 36020 ft 478 kts 259°
2026-05-05 01:03 48.74434 -5.30165 36006 ft 479 kts 259°
2026-05-05 01:04 48.73254 -5.40088 36023 ft 480 kts 259°
2026-05-05 01:04 48.71468 -5.55021 36014 ft 480 kts 259°
2026-05-05 01:05 48.70282 -5.64900 36026 ft 480 kts 259°
2026-05-05 01:05 48.69063 -5.74877 36028 ft 480 kts 259°
2026-05-05 01:06 48.67842 -5.84746 36015 ft 480 kts 259°
2026-05-05 01:06 48.66609 -5.94674 36029 ft 480 kts 259°
2026-05-05 01:07 48.65377 -6.04556 36032 ft 480 kts 259°
2026-05-05 01:07 48.64125 -6.14499 36019 ft 481 kts 259°
2026-05-05 01:08 48.62860 -6.24402 36023 ft 481 kts 259°
2026-05-05 01:08 48.61588 -6.34322 36035 ft 481 kts 259°
2026-05-05 01:09 48.60312 -6.44243 36039 ft 481 kts 259°
2026-05-05 01:09 48.59028 -6.54178 36034 ft 481 kts 259°
2026-05-05 01:10 48.57731 -6.64058 36035 ft 482 kts 259°
2026-05-05 01:10 48.56422 -6.73985 36033 ft 482 kts 259°
2026-05-05 01:11 48.55110 -6.83903 36035 ft 482 kts 259°
2026-05-05 01:11 48.53794 -6.93814 36027 ft 482 kts 259°
2026-05-05 01:12 48.52439 -7.03706 36031 ft 481 kts 259°
2026-05-05 01:12 48.51069 -7.13574 36031 ft 481 kts 259°
2026-05-05 01:13 48.49694 -7.23442 36032 ft 481 kts 259°
2026-05-05 01:13 48.48314 -7.33311 36038 ft 481 kts 259°
2026-05-05 01:14 48.46909 -7.43173 36036 ft 481 kts 259°
2026-05-05 01:14 48.45488 -7.52976 36040 ft 481 kts 258°
2026-05-05 01:15 48.44051 -7.62843 36040 ft 481 kts 258°
2026-05-05 01:15 48.42610 -7.72698 36040 ft 481 kts 258°
2026-05-05 01:16 48.41167 -7.82485 36041 ft 481 kts 258°
2026-05-05 01:16 48.39690 -7.92322 36043 ft 481 kts 258°
2026-05-05 01:17 48.38208 -8.02152 36045 ft 481 kts 258°
2026-05-05 01:17 48.36720 -8.11993 36046 ft 481 kts 258°
2026-05-05 01:18 48.35230 -8.21804 36041 ft 482 kts 258°
2026-05-05 01:18 48.33720 -8.31564 36045 ft 482 kts 258°
2026-05-05 01:19 48.32190 -8.41398 36045 ft 482 kts 258°
2026-05-05 01:19 48.30666 -8.51162 36045 ft 482 kts 258°
2026-05-05 01:20 48.29129 -8.60981 36052 ft 482 kts 258°
2026-05-05 01:20 48.27572 -8.70777 36049 ft 483 kts 258°
2026-05-05 01:21 48.25997 -8.80588 36049 ft 483 kts 258°
2026-05-05 01:21 48.24427 -8.90346 36050 ft 483 kts 258°
2026-05-05 01:22 48.22854 -9.00083 36054 ft 483 kts 258°
2026-05-05 01:22 48.21270 -9.09870 36053 ft 483 kts 258°
2026-05-05 01:23 48.20667 -9.19736 36057 ft 474 kts 283°
2026-05-05 01:23 48.21648 -9.24404 36057 ft 467 kts 299°
2026-05-05 01:23 48.23423 -9.28419 36061 ft 461 kts 315°
2026-05-05 01:24 48.25848 -9.31495 36061 ft 455 kts 331°
2026-05-05 01:24 48.28724 -9.33395 36058 ft 450 kts 347°
2026-05-05 01:24 48.34901 -9.34532 36063 ft 449 kts 353°
2026-05-05 01:25 48.39970 -9.36601 36073 ft 453 kts 339°
2026-05-05 01:25 48.45454 -9.41206 36072 ft 457 kts 328°
2026-05-05 01:26 48.50616 -9.46837 36069 ft 459 kts 326°
2026-05-05 01:26 48.55719 -9.52614 36072 ft 459 kts 326°
2026-05-05 01:27 48.60865 -9.58331 36064 ft 458 kts 327°
2026-05-05 01:27 48.66017 -9.63985 36077 ft 455 kts 327°
2026-05-05 01:28 48.71123 -9.69582 36080 ft 454 kts 327°
2026-05-05 01:28 48.76238 -9.75205 36083 ft 454 kts 327°
2026-05-05 01:29 48.81317 -9.80806 36083 ft 454 kts 327°
2026-05-05 01:29 48.86433 -9.86464 36091 ft 454 kts 327°
2026-05-05 01:30 48.91534 -9.92124 36093 ft 453 kts 327°
2026-05-05 01:30 48.96584 -9.97740 36094 ft 452 kts 327°
2026-05-05 01:31 49.01662 -10.03397 36098 ft 451 kts 327°
2026-05-05 01:31 49.06732 -10.09062 36097 ft 452 kts 327°
2026-05-05 01:32 49.11778 -10.14717 36104 ft 451 kts 327°
2026-05-05 01:32 49.16824 -10.20386 36110 ft 450 kts 327°
2026-05-05 01:33 49.21875 -10.26071 36109 ft 449 kts 328°
2026-05-05 01:33 49.26808 -10.31639 36113 ft 447 kts 327°
2026-05-05 01:34 49.31756 -10.37238 36118 ft 446 kts 327°
2026-05-05 01:34 49.36699 -10.42849 36118 ft 446 kts 327°
2026-05-05 01:35 49.41692 -10.48530 36124 ft 446 kts 327°
2026-05-05 01:35 49.46655 -10.54192 36124 ft 446 kts 327°
2026-05-05 01:36 49.51636 -10.59887 36126 ft 446 kts 327°
2026-05-05 01:36 49.56615 -10.65598 36132 ft 445 kts 327°
2026-05-05 01:37 49.61589 -10.71319 36132 ft 445 kts 326°
2026-05-05 01:37 49.66415 -10.76882 36139 ft 445 kts 326°
2026-05-05 01:38 49.71381 -10.82618 36135 ft 445 kts 326°
2026-05-05 01:38 49.76336 -10.88357 36136 ft 444 kts 326°
2026-05-05 01:39 49.81277 -10.94099 36141 ft 444 kts 326°
2026-05-05 01:39 49.86185 -10.99817 36146 ft 442 kts 326°
2026-05-05 01:40 49.91116 -11.05573 36145 ft 442 kts 325°
2026-05-05 01:40 49.96011 -11.11302 36148 ft 443 kts 325°
2026-05-05 01:41 50.00913 -11.17056 36150 ft 443 kts 325°
2026-05-05 01:41 50.05831 -11.22845 36158 ft 443 kts 325°
2026-05-05 01:42 50.10756 -11.28657 36149 ft 443 kts 324°
2026-05-05 01:42 50.15644 -11.34439 36158 ft 443 kts 324°
2026-05-05 01:43 50.20561 -11.40273 36155 ft 444 kts 324°
2026-05-05 01:43 50.25472 -11.46114 36158 ft 444 kts 324°
2026-05-05 01:44 50.30366 -11.51951 36161 ft 444 kts 324°
2026-05-05 01:44 50.35276 -11.57820 36164 ft 444 kts 324°
2026-05-05 01:45 50.40190 -11.63714 36152 ft 445 kts 324°
2026-05-05 01:45 50.45105 -11.69624 36167 ft 445 kts 324°
2026-05-05 01:46 50.49993 -11.75516 36166 ft 445 kts 324°
2026-05-05 01:46 50.54897 -11.81442 36170 ft 445 kts 324°
2026-05-05 01:47 50.59808 -11.87394 36170 ft 445 kts 323°
2026-05-05 01:47 50.64680 -11.93314 36170 ft 445 kts 323°
2026-05-05 01:48 50.69583 -11.99289 36171 ft 445 kts 323°
2026-05-05 01:48 50.74485 -12.05276 36169 ft 445 kts 323°
2026-05-05 01:49 50.79395 -12.11291 36175 ft 446 kts 323°
2026-05-05 01:49 50.84267 -12.17278 36177 ft 446 kts 323°
2026-05-05 01:50 50.89167 -12.23314 36177 ft 446 kts 323°
2026-05-05 01:50 50.94069 -12.29368 36175 ft 446 kts 322°
2026-05-05 01:51 50.98973 -12.35442 36181 ft 447 kts 322°
2026-05-05 01:51 51.03850 -12.41498 36184 ft 446 kts 322°
2026-05-05 01:52 51.08746 -12.47597 36184 ft 446 kts 322°
2026-05-05 01:52 51.13638 -12.53706 36189 ft 447 kts 322°
2026-05-05 01:53 51.18531 -12.59834 36184 ft 447 kts 322°
2026-05-05 01:53 51.23386 -12.65932 36184 ft 447 kts 322°
2026-05-05 01:54 51.28277 -12.72091 36188 ft 447 kts 322°
2026-05-05 01:54 51.33161 -12.78259 36187 ft 447 kts 322°
2026-05-05 01:55 51.38017 -12.84408 36186 ft 447 kts 322°
2026-05-05 01:55 51.42900 -12.90609 36189 ft 447 kts 321°
2026-05-05 01:56 51.47780 -12.96824 36189 ft 447 kts 321°
2026-05-05 01:56 51.52631 -13.03020 36192 ft 447 kts 321°
2026-05-05 01:57 51.57498 -13.09251 36192 ft 447 kts 321°
2026-05-05 01:57 51.62350 -13.15483 36188 ft 447 kts 321°
2026-05-05 01:58 51.67183 -13.21708 36192 ft 447 kts 321°
2026-05-05 01:58 51.72039 -13.27979 36192 ft 446 kts 321°
2026-05-05 01:59 51.76867 -13.34233 36200 ft 446 kts 321°
2026-05-05 01:59 51.81717 -13.40532 36196 ft 446 kts 321°
2026-05-05 02:00 51.86526 -13.46797 36200 ft 446 kts 321°
2026-05-05 02:00 51.91342 -13.53088 36201 ft 446 kts 321°
2026-05-05 02:01 51.96181 -13.59427 36197 ft 446 kts 321°
2026-05-05 02:01 52.01005 -13.65763 36208 ft 446 kts 321°
2026-05-05 02:02 52.05813 -13.72098 36207 ft 446 kts 321°
2026-05-05 02:02 52.10647 -13.78486 36204 ft 446 kts 321°
2026-05-05 02:03 52.15438 -13.84835 36207 ft 446 kts 321°
2026-05-05 02:03 52.20254 -13.91234 36202 ft 446 kts 320°
2026-05-05 02:04 52.25071 -13.97653 36211 ft 447 kts 320°
2026-05-05 02:04 52.29893 -14.04099 36210 ft 447 kts 320°
2026-05-05 02:05 52.34681 -14.10517 36210 ft 447 kts 320°
2026-05-05 02:05 52.39496 -14.16990 36207 ft 447 kts 320°
2026-05-05 02:06 52.44314 -14.23485 36207 ft 448 kts 320°
2026-05-05 02:06 52.49090 -14.29944 36213 ft 448 kts 320°
2026-05-05 02:07 52.53889 -14.36452 36215 ft 448 kts 320°
2026-05-05 02:07 52.58693 -14.42986 36216 ft 448 kts 320°
2026-05-05 02:08 52.63475 -14.49510 36219 ft 448 kts 320°
2026-05-05 02:08 52.68269 -14.56069 36215 ft 448 kts 320°
2026-05-05 02:09 52.73087 -14.62680 36216 ft 448 kts 320°
2026-05-05 02:09 52.77848 -14.69233 36218 ft 448 kts 319°
2026-05-05 02:10 52.82638 -14.75845 36218 ft 448 kts 319°
2026-05-05 02:10 52.87406 -14.82447 36212 ft 448 kts 319°
2026-05-05 02:11 52.92206 -14.89113 36223 ft 448 kts 319°
2026-05-05 02:11 52.96903 -14.95813 36226 ft 448 kts 314°
2026-05-05 02:12 53.01967 -15.08679 36218 ft 446 kts 292°
2026-05-05 02:13 53.03854 -15.16676 36227 ft 447 kts 291°
2026-05-05 02:13 53.05992 -15.26411 36229 ft 447 kts 290°
2026-05-05 02:14 53.08104 -15.36075 36229 ft 447 kts 290°
2026-05-05 02:14 53.10242 -15.45783 36228 ft 447 kts 290°
2026-05-05 02:15 53.12387 -15.55510 36231 ft 446 kts 291°
2026-05-05 02:15 53.14507 -15.65156 36238 ft 446 kts 290°
2026-05-05 02:16 53.16631 -15.74871 36228 ft 446 kts 290°
2026-05-05 02:16 53.18747 -15.84596 36236 ft 446 kts 290°
2026-05-05 02:17 53.20853 -15.94329 36237 ft 445 kts 290°
2026-05-05 02:17 53.22939 -16.04009 36237 ft 445 kts 290°
2026-05-05 02:18 53.25025 -16.13737 36237 ft 445 kts 290°
2026-05-05 02:18 53.27109 -16.23503 36242 ft 445 kts 290°
2026-05-05 02:19 53.29172 -16.33215 36240 ft 445 kts 290°
2026-05-05 02:19 53.31240 -16.42999 36248 ft 445 kts 290°
2026-05-05 02:20 53.33283 -16.52712 36245 ft 445 kts 290°
2026-05-05 02:20 53.35335 -16.62515 36255 ft 445 kts 290°
2026-05-05 02:21 53.37363 -16.72251 36244 ft 444 kts 290°
2026-05-05 02:21 53.39392 -16.82037 36251 ft 444 kts 290°
2026-05-05 02:22 53.41398 -16.91764 36253 ft 444 kts 289°
2026-05-05 02:22 53.43414 -17.01582 36256 ft 444 kts 289°
2026-05-05 02:23 53.45421 -17.11409 36253 ft 444 kts 289°
2026-05-05 02:23 53.47402 -17.21156 36255 ft 444 kts 289°
2026-05-05 02:24 53.49391 -17.30991 36264 ft 444 kts 289°
2026-05-05 02:24 53.51360 -17.40771 36257 ft 444 kts 289°
2026-05-05 02:25 53.53329 -17.50607 36263 ft 444 kts 289°
2026-05-05 02:25 53.55293 -17.60463 36262 ft 444 kts 289°
2026-05-05 02:26 53.57237 -17.70274 36263 ft 444 kts 289°
2026-05-05 02:26 53.59187 -17.80157 36265 ft 444 kts 289°
2026-05-05 02:27 53.61114 -17.89980 36266 ft 444 kts 288°
2026-05-05 02:27 53.63046 -17.99874 36271 ft 444 kts 288°
2026-05-05 02:28 53.64958 -18.09719 36268 ft 444 kts 288°
2026-05-05 02:28 53.66872 -18.19627 36274 ft 443 kts 288°
2026-05-05 02:29 53.68774 -18.29519 36269 ft 443 kts 288°
2026-05-05 02:29 53.70670 -18.39435 36270 ft 443 kts 288°
2026-05-05 02:30 53.72544 -18.49285 36276 ft 443 kts 288°
2026-05-05 02:30 53.74428 -18.59240 36275 ft 443 kts 288°
2026-05-05 02:31 53.76299 -18.69181 36286 ft 443 kts 287°
2026-05-05 02:31 53.78152 -18.79075 36285 ft 443 kts 287°
2026-05-05 02:32 53.80008 -18.89037 36283 ft 443 kts 287°
2026-05-05 02:32 53.81839 -18.98925 36281 ft 443 kts 287°
2026-05-05 02:33 53.83672 -19.08874 36290 ft 443 kts 287°
2026-05-05 02:33 53.85502 -19.18856 36284 ft 443 kts 287°
2026-05-05 02:34 53.87323 -19.28841 36284 ft 443 kts 287°
2026-05-05 02:34 53.89124 -19.38776 36280 ft 443 kts 287°
2026-05-05 02:35 53.90927 -19.48775 36289 ft 443 kts 287°
2026-05-05 02:35 53.92714 -19.58739 36295 ft 443 kts 286°
2026-05-05 02:36 53.94502 -19.68760 36291 ft 442 kts 286°
2026-05-05 02:36 53.96280 -19.78787 36294 ft 442 kts 286°
2026-05-05 02:37 53.98040 -19.88762 36289 ft 442 kts 286°
2026-05-05 02:37 53.99695 -19.98834 36298 ft 442 kts 281°
2026-05-05 02:38 54.00405 -20.09170 36298 ft 442 kts 275°
2026-05-05 02:38 54.00848 -20.19631 36295 ft 442 kts 274°
2026-05-05 02:39 54.01234 -20.30018 36295 ft 442 kts 274°
2026-05-05 02:39 54.01624 -20.40464 36301 ft 442 kts 274°
2026-05-05 02:40 54.02016 -20.50914 36314 ft 442 kts 274°
2026-05-05 02:40 54.02403 -20.61372 36300 ft 442 kts 274°
2026-05-05 02:41 54.02778 -20.71773 36307 ft 442 kts 273°
2026-05-05 02:41 54.03146 -20.82235 36306 ft 442 kts 273°
2026-05-05 02:42 54.03503 -20.92637 36306 ft 442 kts 273°
2026-05-05 02:42 54.03853 -21.03106 36310 ft 442 kts 273°
2026-05-05 02:43 54.04191 -21.13506 36314 ft 442 kts 273°
2026-05-05 02:43 54.04523 -21.23988 36308 ft 442 kts 273°
2026-05-05 02:44 54.04843 -21.34390 36309 ft 442 kts 273°
2026-05-05 02:44 54.05157 -21.44850 36315 ft 442 kts 273°
2026-05-05 02:45 54.05461 -21.55324 36312 ft 442 kts 272°
2026-05-05 02:45 54.05756 -21.65801 36318 ft 442 kts 272°
2026-05-05 02:46 54.06041 -21.76208 36319 ft 442 kts 272°
2026-05-05 02:46 54.06318 -21.86686 36319 ft 442 kts 272°
2026-05-05 02:47 54.06584 -21.97123 36319 ft 442 kts 272°
2026-05-05 02:47 54.06843 -22.07599 36318 ft 442 kts 272°
2026-05-05 02:48 54.07092 -22.18024 36319 ft 442 kts 272°
2026-05-05 02:48 54.07333 -22.28506 36322 ft 442 kts 272°
2026-05-05 02:49 54.07564 -22.38990 36321 ft 442 kts 272°
2026-05-05 02:49 54.07787 -22.49473 36323 ft 442 kts 272°
2026-05-05 02:50 54.07999 -22.59910 36326 ft 442 kts 272°
2026-05-05 02:50 54.08203 -22.70392 36325 ft 442 kts 272°
2026-05-05 02:51 54.08399 -22.80886 36327 ft 443 kts 271°
2026-05-05 02:51 54.08584 -22.91310 36329 ft 443 kts 271°
2026-05-05 02:52 54.08760 -23.01775 36329 ft 443 kts 271°
2026-05-05 02:52 54.08928 -23.12271 36329 ft 443 kts 271°
2026-05-05 02:53 54.09087 -23.22782 36331 ft 443 kts 271°
2026-05-05 02:53 54.09237 -23.33299 36324 ft 443 kts 271°
2026-05-05 02:54 54.09378 -23.43824 36328 ft 444 kts 271°
2026-05-05 02:54 54.09510 -23.54363 36334 ft 444 kts 271°
2026-05-05 02:55 54.09632 -23.64822 36332 ft 444 kts 271°
2026-05-05 02:55 54.09745 -23.75382 36332 ft 444 kts 271°
2026-05-05 02:56 54.09849 -23.85853 36332 ft 444 kts 271°
2026-05-05 02:56 54.09944 -23.96393 36337 ft 444 kts 271°
2026-05-05 02:57 54.10030 -24.06882 36338 ft 444 kts 271°
2026-05-05 02:57 54.10106 -24.17429 36342 ft 444 kts 271°
2026-05-05 02:58 54.10174 -24.27975 36344 ft 444 kts 271°
2026-05-05 02:58 54.10232 -24.38464 36346 ft 446 kts 271°
2026-05-05 02:59 54.10281 -24.49044 36335 ft 446 kts 271°
2026-05-05 02:59 54.10321 -24.59645 36347 ft 446 kts 271°
2026-05-05 03:00 54.10352 -24.70164 36346 ft 446 kts 271°
2026-05-05 03:00 54.10371 -24.78976 36347 ft 446 kts 270°
2026-05-05 03:01 54.10386 -24.91281 36345 ft 446 kts 270°
2026-05-05 03:01 54.10388 -25.01872 36346 ft 446 kts 270°
2026-05-05 03:02 54.10384 -25.10671 36343 ft 446 kts 270°
2026-05-05 03:02 54.10370 -25.21274 36346 ft 447 kts 270°
2026-05-05 03:03 54.10346 -25.31889 36352 ft 447 kts 270°
2026-05-05 03:03 54.10314 -25.42487 36350 ft 447 kts 270°
2026-05-05 03:04 54.10272 -25.53033 36352 ft 448 kts 270°
2026-05-05 03:04 54.10221 -25.63683 36352 ft 449 kts 270°
2026-05-05 03:05 54.10159 -25.74302 36351 ft 449 kts 270°
2026-05-05 03:05 54.10089 -25.84935 36358 ft 450 kts 270°
2026-05-05 03:06 54.10009 -25.95627 36357 ft 450 kts 270°
2026-05-05 03:06 54.09920 -26.06243 36361 ft 450 kts 270°
2026-05-05 03:07 54.09821 -26.16924 36361 ft 450 kts 270°
2026-05-05 03:07 54.09714 -26.27538 36354 ft 450 kts 270°
2026-05-05 03:08 54.09596 -26.38208 36362 ft 450 kts 270°
2026-05-05 03:08 54.09469 -26.48884 36360 ft 450 kts 270°
2026-05-05 03:09 54.09333 -26.59495 36359 ft 450 kts 270°
2026-05-05 03:09 54.09187 -26.70160 36365 ft 450 kts 270°
2026-05-05 03:10 54.09033 -26.80783 36364 ft 451 kts 270°
2026-05-05 03:10 54.08867 -26.91474 36361 ft 451 kts 270°
2026-05-05 03:11 54.08692 -27.02189 36364 ft 451 kts 270°
2026-05-05 03:11 54.08509 -27.12826 36364 ft 451 kts 270°
2026-05-05 03:12 54.08315 -27.23526 36368 ft 451 kts 270°
2026-05-05 03:12 54.08113 -27.34171 36365 ft 451 kts 270°
2026-05-05 03:13 54.07900 -27.44871 36370 ft 451 kts 270°
2026-05-05 03:13 54.07679 -27.55479 36367 ft 449 kts 270°
2026-05-05 03:14 54.07449 -27.66127 36373 ft 449 kts 270°
2026-05-05 03:14 54.07210 -27.76734 36374 ft 449 kts 270°
2026-05-05 03:15 54.06963 -27.87324 36372 ft 449 kts 270°
2026-05-05 03:15 54.06704 -27.97973 36370 ft 449 kts 270°
2026-05-05 03:16 54.06436 -28.08613 36373 ft 450 kts 270°
2026-05-05 03:16 54.06159 -28.19255 36372 ft 450 kts 270°
2026-05-05 03:17 54.05873 -28.29849 36370 ft 450 kts 270°
2026-05-05 03:17 54.05577 -28.40503 36379 ft 450 kts 270°
2026-05-05 03:18 54.05271 -28.51154 36377 ft 450 kts 270°
2026-05-05 03:18 54.04958 -28.61725 36375 ft 448 kts 270°
2026-05-05 03:19 54.04472 -28.77539 36378 ft 447 kts 270°
2026-05-05 03:19 54.04135 -28.88131 36380 ft 447 kts 269°
2026-05-05 03:20 54.03790 -28.98687 36379 ft 447 kts 269°
2026-05-05 03:20 54.03437 -29.09207 36379 ft 447 kts 269°
2026-05-05 03:21 54.03073 -29.19787 36377 ft 446 kts 269°
2026-05-05 03:21 54.02703 -29.30255 36379 ft 446 kts 269°
2026-05-05 03:22 54.02321 -29.40806 36382 ft 446 kts 269°
2026-05-05 03:22 54.01930 -29.51363 36382 ft 446 kts 269°
2026-05-05 03:23 54.01532 -29.61849 36382 ft 446 kts 269°
2026-05-05 03:23 54.01122 -29.72398 36358 ft 446 kts 269°
2026-05-05 03:24 54.00705 -29.82867 36382 ft 445 kts 269°
2026-05-05 03:24 54.00279 -29.93378 36382 ft 445 kts 269°
2026-05-05 03:25 54.00197 -30.03863 36382 ft 442 kts 275°
2026-05-05 03:25 54.00564 -30.14317 36381 ft 442 kts 276°
2026-05-05 03:26 54.00993 -30.24754 36382 ft 442 kts 276°
2026-05-05 03:26 54.01412 -30.35134 36368 ft 442 kts 277°
2026-05-05 03:27 54.01817 -30.45593 36379 ft 442 kts 277°
2026-05-05 03:27 54.02207 -30.56007 36380 ft 443 kts 276°
2026-05-05 03:28 54.02588 -30.66482 36382 ft 443 kts 276°
2026-05-05 03:28 54.02958 -30.76893 36382 ft 443 kts 276°
2026-05-05 03:29 54.03322 -30.87380 36382 ft 443 kts 276°
2026-05-05 03:29 54.03674 -30.97780 36358 ft 443 kts 277°
2026-05-05 03:30 54.04020 -31.08246 36389 ft 441 kts 277°
2026-05-05 03:30 54.04355 -31.18702 36378 ft 441 kts 276°
2026-05-05 03:31 54.04679 -31.29069 36377 ft 441 kts 277°
2026-05-05 03:31 54.04998 -31.39554 36376 ft 442 kts 277°
2026-05-05 03:32 54.05305 -31.49959 36371 ft 443 kts 276°
2026-05-05 03:32 54.05605 -31.60441 36381 ft 443 kts 276°
2026-05-05 03:33 54.05894 -31.70901 36373 ft 441 kts 277°
2026-05-05 03:33 54.06173 -31.81281 36374 ft 440 kts 277°
2026-05-05 03:34 54.06445 -31.91718 36371 ft 440 kts 277°
2026-05-05 03:34 54.06706 -32.02068 36368 ft 440 kts 276°
2026-05-05 03:35 54.06960 -32.12501 36368 ft 440 kts 276°
2026-05-05 03:35 54.07202 -32.22873 36365 ft 441 kts 277°
2026-05-05 03:36 54.07438 -32.33324 36364 ft 439 kts 277°
2026-05-05 03:36 54.07660 -32.43633 36365 ft 437 kts 277°
2026-05-05 03:37 54.07876 -32.53992 36365 ft 437 kts 277°
2026-05-05 03:37 54.08084 -32.64345 36365 ft 437 kts 277°
2026-05-05 03:38 54.08281 -32.74645 36365 ft 437 kts 277°
2026-05-05 03:38 54.08470 -32.84979 36362 ft 437 kts 276°
2026-05-05 03:39 54.08649 -32.95343 36363 ft 434 kts 276°
2026-05-05 03:39 54.08815 -33.05522 36356 ft 430 kts 276°
2026-05-05 03:40 54.08975 -33.15671 36361 ft 430 kts 276°
2026-05-05 03:40 54.09128 -33.25867 36351 ft 430 kts 276°
2026-05-05 03:41 54.09272 -33.36077 36347 ft 430 kts 276°
2026-05-05 03:41 54.09406 -33.46221 36348 ft 430 kts 276°
2026-05-05 03:42 54.09532 -33.56436 36310 ft 430 kts 276°
2026-05-05 03:42 54.09647 -33.66538 36347 ft 428 kts 276°
2026-05-05 03:43 54.09755 -33.76680 36349 ft 427 kts 276°
2026-05-05 03:43 54.09855 -33.86817 36350 ft 427 kts 276°
2026-05-05 03:44 54.09945 -33.96894 36349 ft 427 kts 276°
2026-05-05 03:44 54.10028 -34.07053 36344 ft 428 kts 275°
2026-05-05 03:45 54.10103 -34.17217 36342 ft 429 kts 275°
2026-05-05 03:45 54.10168 -34.27394 36341 ft 429 kts 275°
2026-05-05 03:46 54.10224 -34.37493 36339 ft 429 kts 275°
2026-05-05 03:46 54.10273 -34.47706 36336 ft 429 kts 275°
2026-05-05 03:47 54.10312 -34.57833 36337 ft 429 kts 275°
2026-05-05 03:47 54.10344 -34.68017 36337 ft 429 kts 275°
2026-05-05 03:48 54.10366 -34.78211 36329 ft 429 kts 275°
2026-05-05 03:48 54.10381 -34.88334 36321 ft 429 kts 274°
2026-05-05 03:49 54.10386 -34.98518 36326 ft 428 kts 274°
2026-05-05 03:49 54.10384 -35.06971 36325 ft 429 kts 274°
2026-05-05 03:50 54.10372 -35.18812 36316 ft 429 kts 274°
2026-05-05 03:50 54.10355 -35.27295 36318 ft 429 kts 274°
2026-05-05 03:51 54.10328 -35.37481 36312 ft 429 kts 274°
2026-05-05 03:51 54.10292 -35.47616 36284 ft 429 kts 273°
2026-05-05 03:52 54.10247 -35.57812 36306 ft 429 kts 273°
2026-05-05 03:52 54.10195 -35.67910 36304 ft 428 kts 273°
2026-05-05 03:53 54.10134 -35.78077 36301 ft 428 kts 273°
2026-05-05 03:53 54.10064 -35.88242 36297 ft 429 kts 272°
2026-05-05 03:54 54.09986 -35.98428 36294 ft 430 kts 272°
2026-05-05 03:54 54.09898 -36.08579 36291 ft 430 kts 272°
2026-05-05 03:55 54.09803 -36.18811 36297 ft 433 kts 271°
2026-05-05 03:55 54.09697 -36.29043 36274 ft 434 kts 271°
2026-05-05 03:56 54.09582 -36.39346 36273 ft 434 kts 271°
2026-05-05 03:56 54.09458 -36.49637 36274 ft 434 kts 271°
2026-05-05 03:57 54.09326 -36.59910 36281 ft 434 kts 271°
2026-05-05 03:57 54.09185 -36.70210 36259 ft 434 kts 271°
2026-05-05 03:58 54.09037 -36.80458 36267 ft 435 kts 269°
2026-05-05 03:58 54.08876 -36.90843 36264 ft 438 kts 269°
2026-05-05 03:59 54.08708 -37.01186 36257 ft 439 kts 269°
2026-05-05 03:59 54.08530 -37.11607 36253 ft 439 kts 269°
2026-05-05 04:00 54.08343 -37.21995 36248 ft 439 kts 269°
2026-05-05 04:00 54.08148 -37.32328 36253 ft 439 kts 269°
2026-05-05 04:01 54.07944 -37.42711 36233 ft 439 kts 268°
2026-05-05 04:01 54.07730 -37.53109 36234 ft 438 kts 268°
2026-05-05 04:02 54.07509 -37.63422 36231 ft 438 kts 268°
2026-05-05 04:02 54.07278 -37.73786 36229 ft 438 kts 267°
2026-05-05 04:03 54.07038 -37.84149 36230 ft 438 kts 267°
2026-05-05 04:03 54.06788 -37.94555 36211 ft 439 kts 267°
2026-05-05 04:04 54.06531 -38.04890 36219 ft 438 kts 267°
2026-05-05 04:04 54.06263 -38.15319 36209 ft 441 kts 265°
2026-05-05 04:05 54.05987 -38.25683 36201 ft 441 kts 265°
2026-05-05 04:05 54.05699 -38.36140 36200 ft 441 kts 265°
2026-05-05 04:06 54.05405 -38.46507 36185 ft 440 kts 265°
2026-05-05 04:06 54.05100 -38.56927 36178 ft 441 kts 265°
2026-05-05 04:07 54.04787 -38.67382 36184 ft 441 kts 265°
2026-05-05 04:07 54.04461 -38.77872 36169 ft 446 kts 264°
2026-05-05 04:08 54.04125 -38.88366 36165 ft 447 kts 264°
2026-05-05 04:08 54.03780 -38.98951 36153 ft 447 kts 264°
2026-05-05 04:09 54.03430 -39.09444 36157 ft 447 kts 264°
2026-05-05 04:09 54.03066 -39.20008 36136 ft 447 kts 263°
2026-05-05 04:10 54.02693 -39.30564 36133 ft 447 kts 264°
2026-05-05 04:10 54.02307 -39.41161 36136 ft 450 kts 263°
2026-05-05 04:11 54.01913 -39.51762 36125 ft 452 kts 263°
2026-05-05 04:11 54.01506 -39.62452 36118 ft 455 kts 262°
2026-05-05 04:12 54.01088 -39.73220 36110 ft 455 kts 262°
2026-05-05 04:12 54.00661 -39.83974 36111 ft 455 kts 262°
2026-05-05 04:13 54.00226 -39.94663 36105 ft 455 kts 262°
2026-05-05 04:13 53.99757 -40.05437 36087 ft 458 kts 261°
2026-05-05 04:14 53.99127 -40.16244 36083 ft 459 kts 260°
2026-05-05 04:14 53.98459 -40.27046 36083 ft 460 kts 260°
2026-05-05 04:15 53.97805 -40.37808 36078 ft 460 kts 260°
2026-05-05 04:15 53.97153 -40.48611 36078 ft 460 kts 259°
2026-05-05 04:16 53.96490 -40.59454 36063 ft 461 kts 259°
2026-05-05 04:16 53.95821 -40.70260 36062 ft 462 kts 259°
2026-05-05 04:17 53.95138 -40.81121 36049 ft 462 kts 259°
2026-05-05 04:17 53.94449 -40.91902 36049 ft 462 kts 259°
2026-05-05 04:18 53.93746 -41.02745 36033 ft 462 kts 259°
2026-05-05 04:18 53.93033 -41.13596 36026 ft 462 kts 259°
2026-05-05 04:19 53.92314 -41.24389 36022 ft 462 kts 258°
2026-05-05 04:19 53.91573 -41.35306 36009 ft 466 kts 258°
2026-05-05 04:20 53.90824 -41.46251 35982 ft 467 kts 258°
2026-05-05 04:20 53.90067 -41.57155 35985 ft 469 kts 258°
2026-05-05 04:21 53.89295 -41.68146 35989 ft 469 kts 258°
2026-05-05 04:21 53.88511 -41.79146 35967 ft 469 kts 258°
2026-05-05 04:22 53.87722 -41.90060 35965 ft 469 kts 257°
2026-05-05 04:22 53.86916 -42.01070 35952 ft 470 kts 257°
2026-05-05 04:23 53.86104 -42.12029 35952 ft 470 kts 257°
2026-05-05 04:23 53.85278 -42.23032 35933 ft 470 kts 257°
2026-05-05 04:24 53.84446 -42.33982 35933 ft 470 kts 257°
2026-05-05 04:25 53.83173 -42.50473 35928 ft 471 kts 256°
2026-05-05 04:25 53.82305 -42.61521 35914 ft 473 kts 256°
2026-05-05 04:26 53.81433 -42.72518 35903 ft 473 kts 256°
2026-05-05 04:26 53.80544 -42.83600 35903 ft 473 kts 256°
2026-05-05 04:27 53.79653 -42.94572 35897 ft 473 kts 256°
2026-05-05 04:27 53.78745 -43.05622 35898 ft 473 kts 256°
2026-05-05 04:28 53.77834 -43.16597 35902 ft 474 kts 255°
2026-05-05 04:28 53.76903 -43.27658 35902 ft 474 kts 255°
2026-05-05 04:29 53.75969 -43.38644 35879 ft 475 kts 255°
2026-05-05 04:29 53.75017 -43.49712 35876 ft 475 kts 255°
2026-05-05 04:30 53.74055 -43.60770 35892 ft 475 kts 255°
2026-05-05 04:30 53.73090 -43.71751 35882 ft 475 kts 254°
2026-05-05 04:31 53.72104 -43.82828 35868 ft 477 kts 254°
2026-05-05 04:31 53.71106 -43.93938 35865 ft 478 kts 254°
2026-05-05 04:32 53.70100 -44.05033 35859 ft 477 kts 254°
2026-05-05 04:32 53.69086 -44.16077 35859 ft 477 kts 254°
2026-05-05 04:33 53.68062 -44.27127 35863 ft 478 kts 254°
2026-05-05 04:33 53.67016 -44.38268 35859 ft 481 kts 253°
2026-05-05 04:34 53.65965 -44.49368 35846 ft 482 kts 253°
2026-05-05 04:34 53.64898 -44.60536 35847 ft 482 kts 253°
2026-05-05 04:35 53.63819 -44.71710 35838 ft 482 kts 253°
2026-05-05 04:35 53.62737 -44.82796 35837 ft 482 kts 253°
2026-05-05 04:36 53.61635 -44.93964 35843 ft 482 kts 252°
2026-05-05 04:36 53.60528 -45.05078 35831 ft 483 kts 252°
2026-05-05 04:37 53.59407 -45.16226 35847 ft 483 kts 252°
2026-05-05 04:37 53.58278 -45.27341 35826 ft 485 kts 252°
2026-05-05 04:38 53.57323 -45.36658 35825 ft 485 kts 252°
2026-05-05 04:38 53.56167 -45.47855 35816 ft 485 kts 252°
2026-05-05 04:39 53.54998 -45.59072 35808 ft 485 kts 252°
2026-05-05 04:39 53.53822 -45.70216 35799 ft 486 kts 252°
2026-05-05 04:40 53.52629 -45.81434 35801 ft 486 kts 252°
2026-05-05 04:40 53.51427 -45.92631 35787 ft 486 kts 251°
2026-05-05 04:41 53.50225 -46.03733 35790 ft 486 kts 251°
2026-05-05 04:41 53.49003 -46.14904 35834 ft 485 kts 253°
2026-05-05 04:42 53.47789 -46.25947 35782 ft 482 kts 253°
2026-05-05 04:42 53.46559 -46.36998 35771 ft 481 kts 252°
2026-05-05 04:43 53.45317 -46.48045 35775 ft 481 kts 252°
2026-05-05 04:43 53.44066 -46.59087 35765 ft 481 kts 252°
2026-05-05 04:44 53.42813 -46.70050 35757 ft 481 kts 252°
2026-05-05 04:44 53.41545 -46.81060 35755 ft 480 kts 252°
2026-05-05 04:45 53.40273 -46.92000 35753 ft 480 kts 252°
2026-05-05 04:45 53.38985 -47.02989 35746 ft 481 kts 252°
2026-05-05 04:46 53.37684 -47.13988 35734 ft 482 kts 252°
2026-05-05 04:46 53.36377 -47.24955 35733 ft 482 kts 252°
2026-05-05 04:47 53.35055 -47.35967 35718 ft 481 kts 252°
2026-05-05 04:47 53.33726 -47.46945 35701 ft 479 kts 252°
2026-05-05 04:48 53.32397 -47.57820 35699 ft 479 kts 252°
2026-05-05 04:48 53.31050 -47.68750 35699 ft 479 kts 252°
2026-05-05 04:49 53.29702 -47.79607 35690 ft 479 kts 252°
2026-05-05 04:49 53.28335 -47.90531 35741 ft 479 kts 252°
2026-05-05 04:50 53.26958 -48.01444 35685 ft 480 kts 252°
2026-05-05 04:50 53.25577 -48.12306 35664 ft 480 kts 252°
2026-05-05 04:51 53.24180 -48.23213 35665 ft 480 kts 252°
2026-05-05 04:51 53.22778 -48.34076 35655 ft 479 kts 252°
2026-05-05 04:52 53.21369 -48.44903 35645 ft 479 kts 252°
2026-05-05 04:52 53.19944 -48.55777 35639 ft 478 kts 252°
2026-05-05 04:53 53.18512 -48.66625 35636 ft 477 kts 252°
2026-05-05 04:53 53.17083 -48.77361 35625 ft 477 kts 252°
2026-05-05 04:54 53.15631 -48.88184 35615 ft 478 kts 252°
2026-05-05 04:54 53.14173 -48.98965 35607 ft 479 kts 252°
2026-05-05 04:55 53.12696 -49.09819 35624 ft 479 kts 252°
2026-05-05 04:55 53.11225 -49.20565 35587 ft 477 kts 252°
2026-05-05 04:56 53.09741 -49.31315 35586 ft 477 kts 252°
2026-05-05 04:56 53.08243 -49.42086 35586 ft 477 kts 252°
2026-05-05 04:57 53.06748 -49.52762 35564 ft 477 kts 252°
2026-05-05 04:57 53.05231 -49.63511 35564 ft 477 kts 251°
2026-05-05 04:58 53.03711 -49.74214 35567 ft 477 kts 252°
2026-05-05 04:58 53.02175 -49.84950 35556 ft 478 kts 252°
2026-05-05 04:59 53.00625 -49.95705 35533 ft 478 kts 252°
2026-05-05 04:59 52.98558 -50.06037 35536 ft 472 kts 244°
2026-05-05 05:00 52.96159 -50.16182 35527 ft 472 kts 243°
2026-05-05 05:00 52.93700 -50.26294 35532 ft 471 kts 243°
2026-05-05 05:01 52.91248 -50.36357 35510 ft 470 kts 243°
2026-05-05 05:01 52.88812 -50.46350 35507 ft 470 kts 243°
2026-05-05 05:02 52.86357 -50.56392 35495 ft 470 kts 243°
2026-05-05 05:02 52.83904 -50.66380 35495 ft 470 kts 243°
2026-05-05 05:03 52.81438 -50.76375 35482 ft 469 kts 243°
2026-05-05 05:03 52.78960 -50.86373 35475 ft 470 kts 243°
2026-05-05 05:04 52.76482 -50.96322 35477 ft 470 kts 243°
2026-05-05 05:04 52.73980 -51.06322 35476 ft 470 kts 243°
2026-05-05 05:05 52.71477 -51.16284 35467 ft 470 kts 243°
2026-05-05 05:05 52.68959 -51.26261 35459 ft 469 kts 244°
2026-05-05 05:06 52.66469 -51.36088 35450 ft 468 kts 244°
2026-05-05 05:06 52.63933 -51.46045 35450 ft 468 kts 243°
2026-05-05 05:07 52.61419 -51.55873 35442 ft 468 kts 243°
2026-05-05 05:07 52.58883 -51.65744 35430 ft 468 kts 243°
2026-05-05 05:08 52.56337 -51.75610 35424 ft 468 kts 243°
2026-05-05 05:08 52.53785 -51.85459 35426 ft 468 kts 243°
2026-05-05 05:09 52.51244 -51.95223 35426 ft 467 kts 243°
2026-05-05 05:09 52.48683 -52.05017 35422 ft 467 kts 243°
2026-05-05 05:10 52.46096 -52.14871 35412 ft 467 kts 243°
2026-05-05 05:10 52.43536 -52.24583 35409 ft 467 kts 243°
2026-05-05 05:11 52.40950 -52.34348 35406 ft 467 kts 243°
2026-05-05 05:11 52.38350 -52.44125 35407 ft 467 kts 243°
2026-05-05 05:12 52.35756 -52.53836 35404 ft 467 kts 243°
2026-05-05 05:12 52.33135 -52.63606 35409 ft 467 kts 243°
2026-05-05 05:13 52.30532 -52.73270 35401 ft 466 kts 243°
2026-05-05 05:13 52.27906 -52.82978 35401 ft 466 kts 243°
2026-05-05 05:14 52.25288 -52.92618 35409 ft 466 kts 243°
2026-05-05 05:14 52.22642 -53.02317 35386 ft 467 kts 243°
2026-05-05 05:15 52.19987 -53.12011 35400 ft 467 kts 243°
2026-05-05 05:15 52.17340 -53.21635 35384 ft 467 kts 243°
2026-05-05 05:16 52.14670 -53.31304 35386 ft 467 kts 243°
2026-05-05 05:16 52.11998 -53.40939 35371 ft 467 kts 243°
2026-05-05 05:17 52.09338 -53.50488 35374 ft 467 kts 243°
2026-05-05 05:17 52.06639 -53.60139 35378 ft 467 kts 243°
2026-05-05 05:18 52.03951 -53.69714 35372 ft 466 kts 243°
2026-05-05 05:18 52.01248 -53.79301 35363 ft 466 kts 243°
2026-05-05 05:19 51.98553 -53.88819 35356 ft 466 kts 243°
2026-05-05 05:19 51.95839 -53.98367 35359 ft 466 kts 243°
2026-05-05 05:20 51.93113 -54.07918 35358 ft 466 kts 243°
2026-05-05 05:20 51.90397 -54.17397 35359 ft 466 kts 243°
2026-05-05 05:21 51.87669 -54.26882 35350 ft 466 kts 243°
2026-05-05 05:21 51.84910 -54.36434 35353 ft 466 kts 243°
2026-05-05 05:22 51.82176 -54.45861 35354 ft 466 kts 243°
2026-05-05 05:22 51.79254 -54.55192 35349 ft 462 kts 238°
2026-05-05 05:23 51.75962 -54.64093 35348 ft 461 kts 237°
2026-05-05 05:23 51.72623 -54.72875 35339 ft 461 kts 236°
2026-05-05 05:24 51.69253 -54.81690 35339 ft 461 kts 236°
2026-05-05 05:24 51.65910 -54.90429 35343 ft 460 kts 236°
2026-05-05 05:25 51.62544 -54.99211 35336 ft 458 kts 236°
2026-05-05 05:25 51.59750 -55.06483 35337 ft 458 kts 236°
2026-05-05 05:26 51.56392 -55.15191 35338 ft 458 kts 236°
2026-05-05 05:26 51.53021 -55.23901 35324 ft 460 kts 236°
2026-05-05 05:27 51.49646 -55.32591 35323 ft 462 kts 237°
2026-05-05 05:27 51.44528 -55.45719 35320 ft 462 kts 236°
2026-05-05 05:28 51.41129 -55.54402 35313 ft 462 kts 236°
2026-05-05 05:28 51.37714 -55.63094 35306 ft 462 kts 236°
2026-05-05 05:29 51.34286 -55.71790 35288 ft 461 kts 236°
2026-05-05 05:29 51.30857 -55.80460 35303 ft 461 kts 236°
2026-05-05 05:30 51.27419 -55.89125 35306 ft 461 kts 236°
2026-05-05 05:30 51.23997 -55.97718 35304 ft 460 kts 236°
2026-05-05 05:31 51.20559 -56.06321 35302 ft 461 kts 236°
2026-05-05 05:31 51.17123 -56.14894 35303 ft 461 kts 236°
2026-05-05 05:32 51.13660 -56.23504 35290 ft 461 kts 236°
2026-05-05 05:32 51.10185 -56.32118 35289 ft 461 kts 236°
2026-05-05 05:33 51.06703 -56.40717 35286 ft 461 kts 236°
2026-05-05 05:33 51.03247 -56.49226 35294 ft 460 kts 236°
2026-05-05 05:34 50.99793 -56.57701 35290 ft 459 kts 236°
2026-05-05 05:34 50.96334 -56.66161 35293 ft 459 kts 236°
2026-05-05 05:35 50.92856 -56.74638 35285 ft 459 kts 236°
2026-05-05 05:35 50.89385 -56.83068 35295 ft 458 kts 236°
2026-05-05 05:36 50.85892 -56.91527 35292 ft 455 kts 236°
2026-05-05 05:36 50.82457 -56.99823 35304 ft 454 kts 236°
2026-05-05 05:37 50.78970 -57.08213 35302 ft 454 kts 236°
2026-05-05 05:37 50.75497 -57.16545 35308 ft 455 kts 236°
2026-05-05 05:38 50.72010 -57.24883 35305 ft 452 kts 236°
2026-05-05 05:38 50.68563 -57.33097 35322 ft 451 kts 236°
2026-05-05 05:39 50.65103 -57.41318 35335 ft 451 kts 236°
2026-05-05 05:39 50.61623 -57.49562 35336 ft 451 kts 236°
2026-05-05 05:40 50.58139 -57.57788 35353 ft 449 kts 236°
2026-05-05 05:40 50.54699 -57.65886 35357 ft 447 kts 236°
2026-05-05 05:41 50.51230 -57.74028 35378 ft 449 kts 236°
2026-05-05 05:41 50.47739 -57.82194 35376 ft 452 kts 236°
2026-05-05 05:42 50.44242 -57.90351 35396 ft 452 kts 236°
2026-05-05 05:42 50.40717 -57.98544 35396 ft 453 kts 236°
2026-05-05 05:43 50.37216 -58.06659 35412 ft 452 kts 236°
2026-05-05 05:43 50.33688 -58.14808 35421 ft 451 kts 236°
2026-05-05 05:44 50.30170 -58.22909 35415 ft 451 kts 236°
2026-05-05 05:44 50.26639 -58.31017 35424 ft 450 kts 236°
2026-05-05 05:45 50.23109 -58.39099 35426 ft 450 kts 236°
2026-05-05 05:45 50.19588 -58.47135 35431 ft 450 kts 236°
2026-05-05 05:46 50.16045 -58.55196 35434 ft 451 kts 236°
2026-05-05 05:46 50.12493 -58.63253 35443 ft 451 kts 236°
2026-05-05 05:47 50.08935 -58.71296 35445 ft 450 kts 236°
2026-05-05 05:47 50.05376 -58.79321 35445 ft 450 kts 236°
2026-05-05 05:48 50.01821 -58.87314 35454 ft 449 kts 236°
2026-05-05 05:48 49.98275 -58.95258 35455 ft 450 kts 236°
2026-05-05 05:49 49.94692 -59.03262 35463 ft 451 kts 236°
2026-05-05 05:49 49.91109 -59.11242 35465 ft 450 kts 236°
2026-05-05 05:50 49.87543 -59.19161 35473 ft 451 kts 236°
2026-05-05 05:50 49.83943 -59.27133 35484 ft 451 kts 235°
2026-05-05 05:51 49.80339 -59.35089 35480 ft 450 kts 236°
2026-05-05 05:51 49.76734 -59.43023 35497 ft 451 kts 236°
2026-05-05 05:52 49.73140 -59.50907 35498 ft 451 kts 235°
2026-05-05 05:52 49.69519 -59.58829 35508 ft 450 kts 235°
2026-05-05 05:53 49.65899 -59.66724 35505 ft 450 kts 235°
2026-05-05 05:53 49.62293 -59.74564 35511 ft 451 kts 235°
2026-05-05 05:54 49.58654 -59.82456 35512 ft 451 kts 235°
2026-05-05 05:54 49.55007 -59.90341 35513 ft 451 kts 235°
2026-05-05 05:55 49.51355 -59.98212 35527 ft 451 kts 235°
2026-05-05 05:55 49.47717 -60.06032 35532 ft 451 kts 235°
2026-05-05 05:56 49.44051 -60.13888 35535 ft 452 kts 235°
2026-05-05 05:56 49.40389 -60.21714 35536 ft 453 kts 235°
2026-05-05 05:57 49.36703 -60.29565 35546 ft 452 kts 235°
2026-05-05 05:57 49.33020 -60.37389 35547 ft 452 kts 235°
2026-05-05 05:58 49.29348 -60.45164 35557 ft 453 kts 235°
2026-05-05 05:58 49.25639 -60.52996 35563 ft 453 kts 235°
2026-05-05 05:59 49.21930 -60.60805 35562 ft 453 kts 235°
2026-05-05 05:59 49.18239 -60.68555 35570 ft 453 kts 235°
2026-05-05 06:00 49.14517 -60.76338 35583 ft 453 kts 235°
2026-05-05 06:00 49.10798 -60.84102 35584 ft 453 kts 235°
2026-05-05 06:01 49.07068 -60.91870 35589 ft 453 kts 235°
2026-05-05 06:01 49.03337 -60.99614 35589 ft 453 kts 235°
2026-05-05 06:02 48.99622 -61.07301 35599 ft 453 kts 235°
2026-05-05 06:02 48.95872 -61.15037 35600 ft 453 kts 235°
2026-05-05 06:03 48.92116 -61.22766 35609 ft 454 kts 235°
2026-05-05 06:03 48.88375 -61.30441 35620 ft 454 kts 235°
2026-05-05 06:04 48.84594 -61.38174 35611 ft 454 kts 235°
2026-05-05 06:04 48.80839 -61.45833 35623 ft 454 kts 235°
2026-05-05 06:05 48.77065 -61.53510 35625 ft 454 kts 235°
2026-05-05 06:05 48.73279 -61.61188 35630 ft 454 kts 235°
2026-05-05 06:06 48.69493 -61.68843 35647 ft 453 kts 235°
2026-05-05 06:06 48.65729 -61.76435 35645 ft 453 kts 235°
2026-05-05 06:07 48.61941 -61.84053 35646 ft 453 kts 235°
2026-05-05 06:07 48.58137 -61.91681 35649 ft 453 kts 235°
2026-05-05 06:08 48.54335 -61.99283 35657 ft 453 kts 235°
2026-05-05 06:08 48.50552 -62.06826 35659 ft 453 kts 235°
2026-05-05 06:09 48.46758 -62.14369 35656 ft 452 kts 235°
2026-05-05 06:09 48.42948 -62.21925 35663 ft 452 kts 235°
2026-05-05 06:10 48.39144 -62.29446 35663 ft 453 kts 235°
2026-05-05 06:10 48.35306 -62.37014 35674 ft 453 kts 235°
2026-05-05 06:11 48.31500 -62.44497 35676 ft 453 kts 235°
2026-05-05 06:11 48.28309 -62.50756 35678 ft 453 kts 235°
2026-05-05 06:12 48.24477 -62.58253 35689 ft 453 kts 235°
2026-05-05 06:12 48.20630 -62.65759 35682 ft 452 kts 235°
2026-05-05 06:13 48.16790 -62.73228 35691 ft 452 kts 235°
2026-05-05 06:13 48.12973 -62.80635 35691 ft 451 kts 235°
2026-05-05 06:14 48.09131 -62.88070 35703 ft 451 kts 235°
2026-05-05 06:14 48.05278 -62.95503 35703 ft 451 kts 235°
2026-05-05 06:15 48.01444 -63.02880 35711 ft 451 kts 235°
2026-05-05 06:15 47.97590 -63.10277 35711 ft 451 kts 235°
2026-05-05 06:16 47.93738 -63.17651 35711 ft 451 kts 235°
2026-05-05 06:16 47.89867 -63.25039 35719 ft 451 kts 235°
2026-05-05 06:17 47.86026 -63.32352 35722 ft 451 kts 235°
2026-05-05 06:17 47.82151 -63.39707 35722 ft 451 kts 235°
2026-05-05 06:18 47.78281 -63.47036 35733 ft 450 kts 235°
2026-05-05 06:18 47.74395 -63.54372 35717 ft 450 kts 235°
2026-05-05 06:19 47.70539 -63.61633 35735 ft 449 kts 235°
2026-05-05 06:19 47.66660 -63.68918 35743 ft 449 kts 235°
2026-05-05 06:20 47.62793 -63.76161 35748 ft 449 kts 235°
2026-05-05 06:20 47.58902 -63.83431 35746 ft 449 kts 235°
2026-05-05 06:21 47.55009 -63.90683 35752 ft 449 kts 235°
2026-05-05 06:21 47.51114 -63.97921 35751 ft 449 kts 235°
2026-05-05 06:22 47.47250 -64.05082 35757 ft 449 kts 235°
2026-05-05 06:22 47.43347 -64.12299 35758 ft 449 kts 235°
2026-05-05 06:23 47.39440 -64.19499 35776 ft 448 kts 235°
2026-05-05 06:23 47.35537 -64.26675 35787 ft 448 kts 235°
2026-05-05 06:24 47.31644 -64.33815 35771 ft 449 kts 235°
2026-05-05 06:24 47.27722 -64.40990 35779 ft 449 kts 235°
2026-05-05 06:25 47.23821 -64.48105 35786 ft 448 kts 235°
2026-05-05 06:25 47.19910 -64.55222 35791 ft 448 kts 235°
2026-05-05 06:26 47.15985 -64.62346 35794 ft 448 kts 235°
2026-05-05 06:26 47.12048 -64.69473 35790 ft 448 kts 235°
2026-05-05 06:27 47.06164 -64.80086 35795 ft 447 kts 235°
2026-05-05 06:28 47.02258 -64.87111 35799 ft 446 kts 235°
2026-05-05 06:28 46.98317 -64.94183 35802 ft 447 kts 235°
2026-05-05 06:29 46.94374 -65.01239 35785 ft 446 kts 236°
2026-05-05 06:29 46.90461 -65.08219 35815 ft 446 kts 236°
2026-05-05 06:30 46.86525 -65.15226 35815 ft 445 kts 236°
2026-05-05 06:30 46.82581 -65.22230 35816 ft 445 kts 236°
2026-05-05 06:31 46.78660 -65.29175 35803 ft 445 kts 236°
2026-05-05 06:31 46.74704 -65.36163 35813 ft 444 kts 236°
2026-05-05 06:32 46.70781 -65.43076 35828 ft 444 kts 236°
2026-05-05 06:32 46.66835 -65.50012 35826 ft 444 kts 236°
2026-05-05 06:33 46.62906 -65.56902 35799 ft 444 kts 236°
2026-05-05 06:33 46.58953 -65.63815 35831 ft 443 kts 236°
2026-05-05 06:34 46.55008 -65.70700 35832 ft 443 kts 236°
2026-05-05 06:34 46.51079 -65.77539 35831 ft 442 kts 236°
2026-05-05 06:35 46.47131 -65.84394 35827 ft 442 kts 236°
2026-05-05 06:35 46.43170 -65.91249 35835 ft 442 kts 236°
2026-05-05 06:36 46.39240 -65.98034 35834 ft 441 kts 236°
2026-05-05 06:36 46.35285 -66.04846 35838 ft 441 kts 236°
2026-05-05 06:37 46.31323 -66.11657 35833 ft 441 kts 236°
2026-05-05 06:37 46.27383 -66.18411 35837 ft 441 kts 236°
2026-05-05 06:38 46.23421 -66.25188 35837 ft 440 kts 236°
2026-05-05 06:38 46.19482 -66.31909 35840 ft 440 kts 236°
2026-05-05 06:39 46.15514 -66.38663 35823 ft 441 kts 236°
2026-05-05 06:39 46.11538 -66.45414 35844 ft 441 kts 236°
2026-05-05 06:40 46.07588 -66.52106 35846 ft 440 kts 236°
2026-05-05 06:40 46.03604 -66.58837 35841 ft 440 kts 236°
2026-05-05 06:41 45.99634 -66.65529 35806 ft 440 kts 236°
2026-05-05 06:41 45.95669 -66.72197 35841 ft 440 kts 236°
2026-05-05 06:42 45.91666 -66.78910 35840 ft 440 kts 236°
2026-05-05 06:42 45.87670 -66.85597 35837 ft 440 kts 236°
2026-05-05 06:43 45.83700 -66.92226 35810 ft 440 kts 236°
2026-05-05 06:43 45.79701 -66.98886 35839 ft 440 kts 236°
2026-05-05 06:44 45.75707 -67.05522 35838 ft 440 kts 235°
2026-05-05 06:44 45.71701 -67.12160 35837 ft 439 kts 235°
2026-05-05 06:45 45.67720 -67.18743 35831 ft 439 kts 235°
2026-05-05 06:45 45.63711 -67.25356 35838 ft 439 kts 235°
2026-05-05 06:46 45.59721 -67.31923 35834 ft 439 kts 235°
2026-05-05 06:46 45.55713 -67.38505 35839 ft 439 kts 235°
2026-05-05 06:47 45.51711 -67.45058 35827 ft 439 kts 235°
2026-05-05 06:47 45.47693 -67.51624 35834 ft 439 kts 235°
2026-05-05 06:48 45.43695 -67.58141 35841 ft 439 kts 235°
2026-05-05 06:48 45.39677 -67.64677 35844 ft 439 kts 235°
2026-05-05 06:49 45.35642 -67.71223 35832 ft 439 kts 234°
2026-05-05 06:49 45.31622 -67.77703 35845 ft 439 kts 234°
2026-05-05 06:50 45.27516 -67.84169 35845 ft 440 kts 234°
2026-05-05 06:50 45.23402 -67.90610 35847 ft 439 kts 234°
2026-05-05 06:51 45.19297 -67.97041 35839 ft 439 kts 234°
2026-05-05 06:51 45.15227 -68.03418 35844 ft 439 kts 234°
2026-05-05 06:52 45.11124 -68.09834 35847 ft 439 kts 234°
2026-05-05 06:52 45.07015 -68.16245 35849 ft 439 kts 233°
2026-05-05 06:53 45.02922 -68.22614 35855 ft 439 kts 233°
2026-05-05 06:53 44.98807 -68.29002 35853 ft 439 kts 233°
2026-05-05 06:54 44.94691 -68.35379 35854 ft 439 kts 233°
2026-05-05 06:54 44.90586 -68.41723 35855 ft 439 kts 233°
2026-05-05 06:55 44.86457 -68.48090 35847 ft 439 kts 233°
2026-05-05 06:55 44.82349 -68.54410 35851 ft 439 kts 233°
2026-05-05 06:56 44.78222 -68.60745 35847 ft 439 kts 233°
2026-05-05 06:56 44.74106 -68.67048 35851 ft 439 kts 233°
2026-05-05 06:57 44.69973 -68.73364 35850 ft 438 kts 233°
2026-05-05 06:57 44.65862 -68.79630 35845 ft 437 kts 233°
2026-05-05 06:58 44.61730 -68.85915 35843 ft 437 kts 233°
2026-05-05 06:58 44.57592 -68.92196 35821 ft 437 kts 233°
2026-05-05 06:59 44.53455 -68.98462 35834 ft 437 kts 233°
2026-05-05 06:59 44.49335 -69.04686 35833 ft 437 kts 233°
2026-05-05 07:00 44.45197 -69.10924 35840 ft 437 kts 233°
2026-05-05 07:00 44.41750 -69.16110 35828 ft 437 kts 233°
2026-05-05 07:01 44.36921 -69.23358 35844 ft 437 kts 233°
2026-05-05 07:01 44.33464 -69.28536 35845 ft 437 kts 233°
2026-05-05 07:02 44.29329 -69.34716 35852 ft 437 kts 233°
2026-05-05 07:02 44.25168 -69.40923 35849 ft 437 kts 233°
2026-05-05 07:03 44.21001 -69.47124 35864 ft 437 kts 233°
2026-05-05 07:03 44.16868 -69.53260 35867 ft 437 kts 232°
2026-05-05 07:04 44.12702 -69.59431 35876 ft 436 kts 232°
2026-05-05 07:04 44.08549 -69.65571 35884 ft 435 kts 232°
2026-05-05 07:05 44.04389 -69.71707 35885 ft 435 kts 232°
2026-05-05 07:05 44.00255 -69.77792 35888 ft 435 kts 232°
2026-05-05 07:06 43.96085 -69.83916 35865 ft 435 kts 232°
2026-05-05 07:06 43.91917 -69.90025 35897 ft 435 kts 232°
2026-05-05 07:07 43.87790 -69.96059 35897 ft 435 kts 232°
2026-05-05 07:07 43.83622 -70.02141 35896 ft 435 kts 232°
2026-05-05 07:08 43.79454 -70.08209 35886 ft 435 kts 232°
2026-05-05 07:08 43.75277 -70.14277 35875 ft 435 kts 232°
2026-05-05 07:09 43.71101 -70.20330 35875 ft 435 kts 232°
2026-05-05 07:09 43.66986 -70.26281 35879 ft 435 kts 232°
2026-05-05 07:10 43.62818 -70.32298 35863 ft 435 kts 232°
2026-05-05 07:10 43.58627 -70.38333 35872 ft 434 kts 232°
2026-05-05 07:11 43.54464 -70.44315 35872 ft 434 kts 232°
2026-05-05 07:11 43.50346 -70.50225 35875 ft 437 kts 232°
2026-05-05 07:12 43.46131 -70.56259 35875 ft 434 kts 232°
2026-05-05 07:12 43.41591 -70.61761 35876 ft 444 kts 218°
2026-05-05 07:13 43.36059 -70.65737 35878 ft 449 kts 212°
2026-05-05 07:13 43.30429 -70.69527 35874 ft 450 kts 212°
2026-05-05 07:14 43.24822 -70.73292 35881 ft 451 kts 212°
2026-05-05 07:14 43.19172 -70.77078 35877 ft 451 kts 212°
2026-05-05 07:15 43.13559 -70.80831 35879 ft 451 kts 212°
2026-05-05 07:15 43.07923 -70.84593 35877 ft 451 kts 212°
2026-05-05 07:16 43.02277 -70.88354 35875 ft 451 kts 212°
2026-05-05 07:16 42.96636 -70.92104 35879 ft 451 kts 212°
2026-05-05 07:17 42.90978 -70.95857 35886 ft 451 kts 212°
2026-05-05 07:17 42.85346 -70.99585 35920 ft 451 kts 212°
2026-05-05 07:18 42.79685 -71.03326 35912 ft 451 kts 211°
2026-05-05 07:18 42.74050 -71.07041 35925 ft 452 kts 211°
2026-05-05 07:19 42.68384 -71.10768 35921 ft 452 kts 211°
2026-05-05 07:19 42.62745 -71.14472 35924 ft 452 kts 211°
2026-05-05 07:20 42.57066 -71.18193 35923 ft 452 kts 211°
2026-05-05 07:20 42.51430 -71.21878 35930 ft 452 kts 211°
2026-05-05 07:21 42.45757 -71.25580 35895 ft 451 kts 211°
2026-05-05 07:21 42.40114 -71.29256 35906 ft 451 kts 210°
2026-05-05 07:22 42.34419 -71.32957 35911 ft 451 kts 210°
2026-05-05 07:22 42.28788 -71.36610 35898 ft 451 kts 210°
2026-05-05 07:23 42.23140 -71.40268 35843 ft 452 kts 210°
2026-05-05 07:23 42.20280 -71.42120 35588 ft 462 kts 210°
2026-05-05 07:23 42.17329 -71.44030 35487 ft 471 kts 210°
2026-05-05 07:23 42.14399 -71.45919 35261 ft 470 kts 210°
2026-05-05 07:24 42.11442 -71.47821 35000 ft 469 kts 210°
2026-05-05 07:24 42.08496 -71.49716 34744 ft 468 kts 210°
2026-05-05 07:24 42.05550 -71.51609 34502 ft 467 kts 209°
2026-05-05 07:24 42.02706 -71.53436 34258 ft 466 kts 209°
2026-05-05 07:25 41.99787 -71.55319 34090 ft 464 kts 210°
2026-05-05 07:25 41.96992 -71.57462 33807 ft 459 kts 217°
2026-05-05 07:25 41.94459 -71.60058 33124 ft 453 kts 225°
2026-05-05 07:25 41.92140 -71.62802 32655 ft 445 kts 225°
2026-05-05 07:26 41.89844 -71.65562 32132 ft 440 kts 225°
2026-05-05 07:26 41.87577 -71.68290 31626 ft 435 kts 225°
2026-05-05 07:26 41.85337 -71.70985 31125 ft 430 kts 225°
2026-05-05 07:26 41.83122 -71.73646 30633 ft 425 kts 225°
2026-05-05 07:27 41.80934 -71.76273 30138 ft 420 kts 225°
2026-05-05 07:27 41.78761 -71.78881 29582 ft 416 kts 225°
2026-05-05 07:27 41.76609 -71.81460 28962 ft 413 kts 225°
2026-05-05 07:27 41.74498 -71.83988 28361 ft 410 kts 225°
2026-05-05 07:28 41.72378 -71.86524 27784 ft 407 kts 225°
2026-05-05 07:28 41.70274 -71.89039 27230 ft 403 kts 225°
2026-05-05 07:28 41.68186 -71.91532 26695 ft 400 kts 225°
2026-05-05 07:28 41.66112 -71.94006 26153 ft 396 kts 225°
2026-05-05 07:29 41.64093 -71.96413 25648 ft 393 kts 225°
2026-05-05 07:29 41.62064 -71.98828 25126 ft 390 kts 225°
2026-05-05 07:29 41.60036 -72.01241 24612 ft 387 kts 225°
2026-05-05 07:29 41.58033 -72.03623 24070 ft 384 kts 225°
2026-05-05 07:30 41.56036 -72.05995 23570 ft 382 kts 225°
2026-05-05 07:30 41.52119 -72.10640 22452 ft 375 kts 225°
2026-05-05 07:30 41.50176 -72.12942 21886 ft 371 kts 225°
2026-05-05 07:31 41.48249 -72.15222 21359 ft 367 kts 225°
2026-05-05 07:31 41.46354 -72.17464 20815 ft 364 kts 225°
2026-05-05 07:31 41.44460 -72.19702 20287 ft 360 kts 225°
2026-05-05 07:31 41.42592 -72.21909 19765 ft 357 kts 224°
2026-05-05 07:32 41.40761 -72.24068 19256 ft 353 kts 224°
2026-05-05 07:32 41.38985 -72.26163 18758 ft 350 kts 224°
2026-05-05 07:32 41.37169 -72.28301 18328 ft 345 kts 224°
2026-05-05 07:32 41.35381 -72.30407 17769 ft 342 kts 224°
2026-05-05 07:33 41.33602 -72.32499 17163 ft 340 kts 224°
2026-05-05 07:33 41.31832 -72.34580 16569 ft 338 kts 224°
2026-05-05 07:33 41.30072 -72.36648 15998 ft 336 kts 224°
2026-05-05 07:33 41.28329 -72.38694 15446 ft 334 kts 224°
2026-05-05 07:34 41.26585 -72.40740 14877 ft 331 kts 224°
2026-05-05 07:34 41.24883 -72.42734 14345 ft 329 kts 224°
2026-05-05 07:34 41.23164 -72.44747 13784 ft 327 kts 224°
2026-05-05 07:34 41.21460 -72.46740 13200 ft 325 kts 224°
2026-05-05 07:35 41.19772 -72.48714 12643 ft 321 kts 224°
2026-05-05 07:35 41.18106 -72.50661 12191 ft 317 kts 224°
2026-05-05 07:35 41.16448 -72.52597 12022 ft 317 kts 224°
2026-05-05 07:35 41.14791 -72.54532 12005 ft 317 kts 224°
2026-05-05 07:36 41.13159 -72.56435 11952 ft 316 kts 224°
2026-05-05 07:36 41.11508 -72.58360 11444 ft 316 kts 223°
2026-05-05 07:36 41.09858 -72.60280 10953 ft 312 kts 223°
2026-05-05 07:36 41.08258 -72.62160 10645 ft 301 kts 225°
2026-05-05 07:37 41.06917 -72.64211 10408 ft 287 kts 237°
2026-05-05 07:37 41.06021 -72.66477 10181 ft 275 kts 248°
2026-05-05 07:37 41.05350 -72.68815 9877 ft 268 kts 250°
2026-05-05 07:37 41.04733 -72.71128 9442 ft 264 kts 250°
2026-05-05 07:38 41.04133 -72.73425 8999 ft 262 kts 251°
2026-05-05 07:38 41.03557 -72.75645 8551 ft 259 kts 251°
2026-05-05 07:38 41.02967 -72.77930 8097 ft 258 kts 251°
2026-05-05 07:38 41.02395 -72.80148 7657 ft 256 kts 251°
2026-05-05 07:39 41.01824 -72.82364 7305 ft 253 kts 251°
2026-05-05 07:39 41.01255 -72.84571 7067 ft 253 kts 251°
2026-05-05 07:39 41.00686 -72.86781 6918 ft 253 kts 251°
2026-05-05 07:39 41.00119 -72.88978 6729 ft 252 kts 251°
2026-05-05 07:40 40.99552 -72.91173 6574 ft 251 kts 251°
2026-05-05 07:40 40.98994 -72.93330 6410 ft 250 kts 251°
2026-05-05 07:40 40.98430 -72.95512 6234 ft 249 kts 250°
2026-05-05 07:40 40.97865 -72.97696 6058 ft 249 kts 250°
2026-05-05 07:41 40.97311 -72.99834 5894 ft 247 kts 250°
2026-05-05 07:41 40.96754 -73.01981 5678 ft 246 kts 250°
2026-05-05 07:41 40.96197 -73.04126 5515 ft 245 kts 250°
2026-05-05 07:41 40.95643 -73.06260 5343 ft 244 kts 250°
2026-05-05 07:42 40.95091 -73.08382 5159 ft 242 kts 250°
2026-05-05 07:42 40.94550 -73.10460 4993 ft 241 kts 250°
2026-05-05 07:42 40.94006 -73.12543 4817 ft 240 kts 251°
2026-05-05 07:42 40.93462 -73.14633 4625 ft 238 kts 250°
2026-05-05 07:43 40.92922 -73.16707 4450 ft 237 kts 251°
2026-05-05 07:43 40.92385 -73.18765 4277 ft 236 kts 250°
2026-05-05 07:43 40.91855 -73.20793 4124 ft 235 kts 250°
2026-05-05 07:43 40.91319 -73.22843 4013 ft 236 kts 250°
2026-05-05 07:44 40.90784 -73.24888 3910 ft 235 kts 250°
2026-05-05 07:44 40.90250 -73.26924 3809 ft 234 kts 250°
2026-05-05 07:44 40.89716 -73.28958 3712 ft 233 kts 250°
2026-05-05 07:44 40.89183 -73.30988 3624 ft 234 kts 250°
2026-05-05 07:45 40.88651 -73.33013 3528 ft 233 kts 250°
2026-05-05 07:45 40.88121 -73.35032 3428 ft 232 kts 250°
2026-05-05 07:45 40.87600 -73.37023 3331 ft 230 kts 250°
2026-05-05 07:45 40.87073 -73.39023 3224 ft 230 kts 250°
2026-05-05 07:46 40.86548 -73.41016 3130 ft 230 kts 250°
2026-05-05 07:46 40.86020 -73.43020 3032 ft 230 kts 250°
2026-05-05 07:46 40.85492 -73.45017 2928 ft 229 kts 250°
2026-05-05 07:46 40.85143 -73.46339 2859 ft 229 kts 249°
2026-05-05 07:47 40.84617 -73.48325 2763 ft 230 kts 250°
2026-05-05 07:47 40.83917 -73.50968 2631 ft 229 kts 250°
2026-05-05 07:47 40.83564 -73.52302 2566 ft 228 kts 250°
2026-05-05 07:47 40.83040 -73.54274 2468 ft 222 kts 250°
2026-05-05 07:48 40.82553 -73.56119 2350 ft 208 kts 250°
2026-05-05 07:48 40.82077 -73.57834 2231 ft 194 kts 248°
2026-05-05 07:48 40.81555 -73.59427 2136 ft 180 kts 244°
2026-05-05 07:48 40.81001 -73.60836 2047 ft 165 kts 242°
2026-05-05 07:49 40.80439 -73.62064 1981 ft 145 kts 239°
2026-05-05 07:49 40.79906 -73.63090 1972 ft 130 kts 237°
2026-05-05 07:49 40.79369 -73.64029 1993 ft 129 kts 234°
2026-05-05 07:49 40.78804 -73.64923 1991 ft 123 kts 232°
2026-05-05 07:50 40.78234 -73.65737 1985 ft 119 kts 230°
2026-05-05 07:50 40.77648 -73.66503 1977 ft 119 kts 229°
2026-05-05 07:50 40.77029 -73.67244 1995 ft 121 kts 226°
2026-05-05 07:50 40.76391 -73.67947 2000 ft 121 kts 225°
2026-05-05 07:51 40.75713 -73.68608 1997 ft 122 kts 218°
2026-05-05 07:51 40.74981 -73.69188 1997 ft 122 kts 218°
2026-05-05 07:51 40.74249 -73.69757 2001 ft 122 kts 218°
2026-05-05 07:51 40.73487 -73.70274 2008 ft 126 kts 211°
2026-05-05 07:52 40.72656 -73.70669 1898 ft 127 kts 208°
2026-05-05 07:52 40.71839 -73.71061 1771 ft 124 kts 212°
2026-05-05 07:52 40.71059 -73.71537 1656 ft 122 kts 216°
2026-05-05 07:52 40.70343 -73.72129 1478 ft 122 kts 218°
2026-05-05 07:53 40.69619 -73.72702 1284 ft 123 kts 216°
2026-05-05 07:53 40.68901 -73.73255 1126 ft 125 kts 215°
2026-05-05 07:53 40.68147 -73.73841 931 ft 125 kts 214°
2026-05-05 07:53 40.67401 -73.74450 761 ft 128 kts 213°
2026-05-05 07:54 40.66636 -73.75074 605 ft 130 kts 211°
2026-05-05 07:54 40.65850 -73.75693 408 ft 131 kts 210°
2026-05-05 07:54 40.65077 -73.76307 233 ft 132 kts 210°
2026-05-05 07:54 40.64294 -73.76920 61 ft 131 kts 211°
2026-05-05 07:55 40.63533 -73.77515 28 ft 115 kts 211°
2026-05-05 07:55 40.63083 -73.77868 31 ft 34 kts 211°
2026-05-05 07:55 40.62878 -73.78029 29 ft 35 kts 211°
2026-05-05 07:55 40.62668 -73.78196 29 ft 35 kts 211°
2026-05-05 07:56 40.62522 -73.78310 30 ft 22 kts 211°
2026-05-05 07:56 40.62388 -73.78416 31 ft 24 kts 211°
2026-05-05 07:56 40.62318 -73.78519 30 ft 15 kts 266°
2026-05-05 07:56 40.62329 -73.78585 29 ft 16 kts 296°
2026-05-05 07:57 40.62376 -73.78626 28 ft 3 kts
2026-05-05 07:57 40.62446 -73.78560 28 ft 18 kts 32°
2026-05-05 07:57 40.62561 -73.78465 28 ft 22 kts 31°
2026-05-05 07:57 40.62693 -73.78361 27 ft 21 kts 31°
2026-05-05 07:58 40.62831 -73.78252 27 ft 25 kts 31°
2026-05-05 07:58 40.62924 -73.78181 27 ft 15 kts 30°
2026-05-05 07:58 40.63021 -73.78104 27 ft 18 kts 31°
2026-05-05 07:58 40.63094 -73.78048 28 ft 10 kts 29°
2026-05-05 07:59 40.63166 -73.78017 30 ft 12 kts
2026-05-05 07:59 40.63267 -73.77999 29 ft 17 kts 18°
2026-05-05 07:59 40.63391 -73.77924 27 ft 22 kts 31°
2026-05-05 07:59 40.63528 -73.77810 26 ft 25 kts 32°
2026-05-05 08:00 40.63674 -73.77695 31 ft 25 kts 31°
2026-05-05 08:00 40.63814 -73.77585 30 ft 19 kts 31°
2026-05-05 08:00 40.63936 -73.77490 26 ft 22 kts 31°
2026-05-05 08:00 40.64079 -73.77379 26 ft 22 kts 30°
2026-05-05 08:01 40.64222 -73.77268 26 ft 26 kts 31°
2026-05-05 08:01 40.64377 -73.77147 26 ft 18 kts 31°
2026-05-05 08:01 40.64502 -73.77088 29 ft 21 kts
2026-05-05 08:01 40.64657 -73.77104 26 ft 24 kts 343°
2026-05-05 08:02 40.64765 -73.77276 30 ft 26 kts 300°
2026-05-05 08:02 40.64826 -73.77419 32 ft 19 kts 299°
2026-05-05 08:02 40.64896 -73.77583 32 ft 22 kts 299°
2026-05-05 08:02 40.64959 -73.77721 32 ft 7 kts 301°
2026-05-05 08:03 40.64960 -73.77780 30 ft 6 kts 230°
2026-05-05 08:03 40.64941 -73.77838 26 ft 7 kts 278°
2026-05-05 08:03 40.64974 -73.77906 31 ft 11 kts 303°
2026-05-05 08:03 40.65018 -73.78010 26 ft 15 kts 298°
2026-05-05 08:04 40.65066 -73.78131 26 ft 14 kts 310°
2026-05-05 08:04 40.65135 -73.78250 26 ft 18 kts 303°
2026-05-05 08:04 40.65169 -73.78398 26 ft 17 kts 256°
2026-05-05 08:04 40.65107 -73.78441 26 ft 8 kts 152°
2026-05-05 08:05 40.65073 -73.78386 26 ft 5 kts 123°
2026-05-05 08:05 40.65070 -73.78380 26 ft 0 kts 123°